Year,Month,Day,Hour,Minute,Value (Times are PST for temperature in C)
2010,08,14,00,00,21.60
2010,08,14,00,01,21.60
2010,08,14,00,02,21.60
2010,08,14,00,03,21.70
2010,08,14,00,04,21.80
2010,08,14,00,05,21.80
2010,08,14,00,06,21.90
2010,08,14,00,07,21.90
2010,08,14,00,08,21.90
2010,08,14,00,09,22.00
2010,08,14,00,10,22.00
2010,08,14,00,11,22.00
2010,08,14,00,12,22.00
2010,08,14,00,13,22.00
2010,08,14,00,14,21.90
2010,08,14,00,15,21.90
2010,08,14,00,16,21.90
2010,08,14,00,17,21.80
2010,08,14,00,18,21.70
2010,08,14,00,19,21.70
2010,08,14,00,20,21.60
2010,08,14,00,21,21.60
2010,08,14,00,22,21.60
2010,08,14,00,23,21.60
2010,08,14,00,24,21.50
2010,08,14,00,25,21.40
2010,08,14,00,26,21.40
2010,08,14,00,27,21.30
2010,08,14,00,28,21.40
2010,08,14,00,29,21.40
2010,08,14,00,30,21.40
2010,08,14,00,31,21.40
2010,08,14,00,32,21.40
2010,08,14,00,33,21.40
2010,08,14,00,34,21.40
2010,08,14,00,35,21.40
2010,08,14,00,36,21.40
2010,08,14,00,37,21.40
2010,08,14,00,38,21.30
2010,08,14,00,39,21.30
2010,08,14,00,40,21.30
2010,08,14,00,41,21.30
2010,08,14,00,42,21.30
2010,08,14,00,43,21.30
2010,08,14,00,44,21.30
2010,08,14,00,45,21.30
2010,08,14,00,46,21.30
2010,08,14,00,47,21.30
2010,08,14,00,48,21.30
2010,08,14,00,49,21.30
2010,08,14,00,50,21.30
2010,08,14,00,51,21.30
2010,08,14,00,52,21.40
2010,08,14,00,53,21.40
2010,08,14,00,54,21.50
2010,08,14,00,55,21.60
2010,08,14,00,56,21.60
2010,08,14,00,57,21.60
2010,08,14,00,58,21.70
2010,08,14,00,59,21.70
2010,08,14,01,00,21.70
2010,08,14,01,01,21.60
2010,08,14,01,02,21.60
2010,08,14,01,03,21.60
2010,08,14,01,04,21.50
2010,08,14,01,05,21.40
2010,08,14,01,06,21.30
2010,08,14,01,07,21.30
2010,08,14,01,08,21.30
2010,08,14,01,09,21.30
2010,08,14,01,10,21.30
2010,08,14,01,11,21.30
2010,08,14,01,12,21.30
2010,08,14,01,13,21.30
2010,08,14,01,14,21.30
2010,08,14,01,15,21.20
2010,08,14,01,16,21.20
2010,08,14,01,17,21.20
2010,08,14,01,18,21.20
2010,08,14,01,19,21.20
2010,08,14,01,20,21.20
2010,08,14,01,21,21.20
2010,08,14,01,22,21.20
2010,08,14,01,23,21.10
2010,08,14,01,24,21.10
2010,08,14,01,25,21.10
2010,08,14,01,26,21.10
2010,08,14,01,27,21.10
2010,08,14,01,28,21.10
2010,08,14,01,29,21.10
2010,08,14,01,30,21.20
2010,08,14,01,31,21.20
2010,08,14,01,32,21.20
2010,08,14,01,33,21.20
2010,08,14,01,34,21.20
2010,08,14,01,35,21.20
2010,08,14,01,36,21.20
2010,08,14,01,37,21.20
2010,08,14,01,38,21.20
2010,08,14,01,39,21.20
2010,08,14,01,40,21.20
2010,08,14,01,41,21.20
2010,08,14,01,42,21.20
2010,08,14,01,43,21.20
2010,08,14,01,44,21.30
2010,08,14,01,45,21.30
2010,08,14,01,46,21.30
2010,08,14,01,47,21.30
2010,08,14,01,48,21.30
2010,08,14,01,49,21.40
2010,08,14,01,50,21.40
2010,08,14,01,51,21.40
2010,08,14,01,52,21.40
2010,08,14,01,53,21.50
2010,08,14,01,54,21.60
2010,08,14,01,55,21.60
2010,08,14,01,56,21.60
2010,08,14,01,57,21.60
2010,08,14,01,58,21.70
2010,08,14,01,59,21.70
2010,08,14,02,00,21.70
2010,08,14,02,01,21.80
2010,08,14,02,02,21.80
2010,08,14,02,03,21.80
2010,08,14,02,04,21.80
2010,08,14,02,05,21.90
2010,08,14,02,06,22.00
2010,08,14,02,07,22.00
2010,08,14,02,08,22.00
2010,08,14,02,09,22.10
2010,08,14,02,10,22.10
2010,08,14,02,11,22.10
2010,08,14,02,12,22.10
2010,08,14,02,13,22.00
2010,08,14,02,14,21.90
2010,08,14,02,15,21.90
2010,08,14,02,16,21.80
2010,08,14,02,17,21.80
2010,08,14,02,18,21.90
2010,08,14,02,19,22.00
2010,08,14,02,20,22.00
2010,08,14,02,21,22.00
2010,08,14,02,22,22.00
2010,08,14,02,23,22.00
2010,08,14,02,24,22.00
2010,08,14,02,25,22.00
2010,08,14,02,26,22.00
2010,08,14,02,27,22.00
2010,08,14,02,28,22.00
2010,08,14,02,29,22.00
2010,08,14,02,30,22.00
2010,08,14,02,31,22.00
2010,08,14,02,32,21.90
2010,08,14,02,33,21.80
2010,08,14,02,34,21.80
2010,08,14,02,35,21.80
2010,08,14,02,36,21.80
2010,08,14,02,37,22.00
2010,08,14,02,38,22.10
2010,08,14,02,39,22.10
2010,08,14,02,40,22.10
2010,08,14,02,41,22.10
2010,08,14,02,42,22.20
2010,08,14,02,43,22.30
2010,08,14,02,44,22.30
2010,08,14,02,45,22.50
2010,08,14,02,46,22.50
2010,08,14,02,47,22.60
2010,08,14,02,48,22.50
2010,08,14,02,49,22.60
2010,08,14,02,50,22.60
2010,08,14,02,51,22.60
2010,08,14,02,52,22.50
2010,08,14,02,53,22.30
2010,08,14,02,54,22.30
2010,08,14,02,55,22.20
2010,08,14,02,56,22.10
2010,08,14,02,57,22.10
2010,08,14,02,58,22.10
2010,08,14,02,59,22.00
2010,08,14,03,00,22.00
2010,08,14,03,01,22.00
2010,08,14,03,02,21.90
2010,08,14,03,03,21.80
2010,08,14,03,04,21.70
2010,08,14,03,05,21.60
2010,08,14,03,06,21.60
2010,08,14,03,07,21.60
2010,08,14,03,08,21.60
2010,08,14,03,09,21.50
2010,08,14,03,10,21.40
2010,08,14,03,11,21.30
2010,08,14,03,12,21.30
2010,08,14,03,13,21.20
2010,08,14,03,14,21.20
2010,08,14,03,15,21.10
2010,08,14,03,16,21.10
2010,08,14,03,17,21.10
2010,08,14,03,18,21.10
2010,08,14,03,19,21.10
2010,08,14,03,20,21.10
2010,08,14,03,21,21.10
2010,08,14,03,22,21.00
2010,08,14,03,23,21.00
2010,08,14,03,24,21.00
2010,08,14,03,25,21.00
2010,08,14,03,26,21.00
2010,08,14,03,27,20.90
2010,08,14,03,28,20.90
2010,08,14,03,29,20.90
2010,08,14,03,30,20.90
2010,08,14,03,31,20.80
2010,08,14,03,32,20.90
2010,08,14,03,33,20.90
2010,08,14,03,34,20.80
2010,08,14,03,35,20.80
2010,08,14,03,36,20.80
2010,08,14,03,37,20.80
2010,08,14,03,38,20.80
2010,08,14,03,39,20.80
2010,08,14,03,40,20.70
2010,08,14,03,41,20.70
2010,08,14,03,42,20.70
2010,08,14,03,43,20.60
2010,08,14,03,44,20.60
2010,08,14,03,45,20.70
2010,08,14,03,46,20.70
2010,08,14,03,47,20.70
2010,08,14,03,48,20.70
2010,08,14,03,49,20.70
2010,08,14,03,50,20.70
2010,08,14,03,51,20.70
2010,08,14,03,52,20.70
2010,08,14,03,53,20.60
2010,08,14,03,54,20.50
2010,08,14,03,55,20.50
2010,08,14,03,56,20.40
2010,08,14,03,57,20.30
2010,08,14,03,58,20.20
2010,08,14,03,59,20.10
2010,08,14,04,00,20.10
2010,08,14,04,01,20.00
2010,08,14,04,02,19.90
2010,08,14,04,03,19.90
2010,08,14,04,04,19.90
2010,08,14,04,05,19.90
2010,08,14,04,06,19.80
2010,08,14,04,07,19.80
2010,08,14,04,08,19.80
2010,08,14,04,09,19.80
2010,08,14,04,10,19.80
2010,08,14,04,11,19.80
2010,08,14,04,12,19.80
2010,08,14,04,13,19.80
2010,08,14,04,14,19.80
2010,08,14,04,15,19.70
2010,08,14,04,16,19.70
2010,08,14,04,17,19.70
2010,08,14,04,18,19.70
2010,08,14,04,19,19.70
2010,08,14,04,20,19.60
2010,08,14,04,21,19.60
2010,08,14,04,22,19.60
2010,08,14,04,23,19.60
2010,08,14,04,24,19.60
2010,08,14,04,25,19.60
2010,08,14,04,26,19.50
2010,08,14,04,27,19.50
2010,08,14,04,28,19.50
2010,08,14,04,29,19.40
2010,08,14,04,30,19.40
2010,08,14,04,31,19.40
2010,08,14,04,32,19.40
2010,08,14,04,33,19.30
2010,08,14,04,34,19.30
2010,08,14,04,35,19.30
2010,08,14,04,36,19.30
2010,08,14,04,37,19.30
2010,08,14,04,38,19.20
2010,08,14,04,39,19.20
2010,08,14,04,40,19.20
2010,08,14,04,41,19.10
2010,08,14,04,42,19.10
2010,08,14,04,43,19.10
2010,08,14,04,44,19.10
2010,08,14,04,45,19.10
2010,08,14,04,46,19.10
2010,08,14,04,47,19.10
2010,08,14,04,48,19.10
2010,08,14,04,49,19.10
2010,08,14,04,50,19.10
2010,08,14,04,51,18.90
2010,08,14,04,52,18.90
2010,08,14,04,53,18.90
2010,08,14,04,54,18.80
2010,08,14,04,55,18.80
2010,08,14,04,56,18.70
2010,08,14,04,57,18.70
2010,08,14,04,58,18.60
2010,08,14,04,59,18.50
2010,08,14,05,00,18.50
2010,08,14,05,01,18.40
2010,08,14,05,02,18.40
2010,08,14,05,03,18.40
2010,08,14,05,04,18.30
2010,08,14,05,05,18.30
2010,08,14,05,06,18.30
2010,08,14,05,07,18.20
2010,08,14,05,08,18.20
2010,08,14,05,09,18.20
2010,08,14,05,10,18.20
2010,08,14,05,11,18.20
2010,08,14,05,12,18.20
2010,08,14,05,13,18.10
2010,08,14,05,14,18.10
2010,08,14,05,15,18.10
2010,08,14,05,16,18.10
2010,08,14,05,17,18.00
2010,08,14,05,18,17.90
2010,08,14,05,19,17.90
2010,08,14,05,20,17.90
2010,08,14,05,21,17.80
2010,08,14,05,22,17.80
2010,08,14,05,23,17.70
2010,08,14,05,24,17.70
2010,08,14,05,25,17.70
2010,08,14,05,26,17.70
2010,08,14,05,27,17.70
2010,08,14,05,28,17.70
2010,08,14,05,29,17.80
2010,08,14,05,30,17.80
2010,08,14,05,31,17.80
2010,08,14,05,32,17.80
2010,08,14,05,33,17.80
2010,08,14,05,34,17.70
2010,08,14,05,35,17.70
2010,08,14,05,36,17.70
2010,08,14,05,37,17.60
2010,08,14,05,38,17.60
2010,08,14,05,39,17.60
2010,08,14,05,40,17.50
2010,08,14,05,41,17.50
2010,08,14,05,42,17.50
2010,08,14,05,43,17.50
2010,08,14,05,44,17.50
2010,08,14,05,45,17.50
2010,08,14,05,46,17.40
2010,08,14,05,47,17.40
2010,08,14,05,48,17.30
2010,08,14,05,49,17.30
2010,08,14,05,50,17.30
2010,08,14,05,51,17.20
2010,08,14,05,52,17.10
2010,08,14,05,53,17.10
2010,08,14,05,54,17.00
2010,08,14,05,55,17.00
2010,08,14,05,56,16.90
2010,08,14,05,57,16.90
2010,08,14,05,58,16.80
2010,08,14,05,59,16.80
2010,08,14,06,00,16.70
2010,08,14,06,01,16.70
2010,08,14,06,02,16.70
2010,08,14,06,03,16.70
2010,08,14,06,04,16.70
2010,08,14,06,05,16.60
2010,08,14,06,06,16.60
2010,08,14,06,07,16.60
2010,08,14,06,08,16.60
2010,08,14,06,09,16.60
2010,08,14,06,10,16.60
2010,08,14,06,11,16.60
2010,08,14,06,12,16.70
2010,08,14,06,13,16.70
2010,08,14,06,14,16.70
2010,08,14,06,15,16.70
2010,08,14,06,16,16.70
2010,08,14,06,17,16.70
2010,08,14,06,18,16.70
2010,08,14,06,19,16.80
2010,08,14,06,20,16.80
2010,08,14,06,21,16.80
2010,08,14,06,22,16.90
2010,08,14,06,23,17.00
2010,08,14,06,24,17.00
2010,08,14,06,25,17.10
2010,08,14,06,26,17.20
2010,08,14,06,27,17.20
2010,08,14,06,28,17.30
2010,08,14,06,29,17.30
2010,08,14,06,30,17.30
2010,08,14,06,31,17.30
2010,08,14,06,32,17.30
2010,08,14,06,33,17.30
2010,08,14,06,34,17.30
2010,08,14,06,35,17.30
2010,08,14,06,36,17.30
2010,08,14,06,37,17.30
2010,08,14,06,38,17.30
2010,08,14,06,39,17.30
2010,08,14,06,40,17.30
2010,08,14,06,41,17.30
2010,08,14,06,42,17.30
2010,08,14,06,43,17.30
2010,08,14,06,44,17.30
2010,08,14,06,45,17.40
2010,08,14,06,46,17.40
2010,08,14,06,47,17.40
2010,08,14,06,48,17.50
2010,08,14,06,49,17.50
2010,08,14,06,50,17.60
2010,08,14,06,51,17.60
2010,08,14,06,52,17.60
2010,08,14,06,53,17.60
2010,08,14,06,54,17.70
2010,08,14,06,55,17.70
2010,08,14,06,56,17.80
2010,08,14,06,57,17.90
2010,08,14,06,58,17.90
2010,08,14,06,59,18.00
2010,08,14,07,00,18.10
2010,08,14,07,01,18.20
2010,08,14,07,02,18.30
2010,08,14,07,03,18.40
2010,08,14,07,04,18.50
2010,08,14,07,05,18.60
2010,08,14,07,06,18.70
2010,08,14,07,07,18.70
2010,08,14,07,08,18.80
2010,08,14,07,09,18.80
2010,08,14,07,10,18.90
2010,08,14,07,11,18.90
2010,08,14,07,12,18.90
2010,08,14,07,13,18.90
2010,08,14,07,14,18.90
2010,08,14,07,15,18.90
2010,08,14,07,16,19.00
2010,08,14,07,17,19.10
2010,08,14,07,18,19.10
2010,08,14,07,19,19.20
2010,08,14,07,20,19.20
2010,08,14,07,21,19.30
2010,08,14,07,22,19.30
2010,08,14,07,23,19.30
2010,08,14,07,24,19.30
2010,08,14,07,25,19.40
2010,08,14,07,26,19.40
2010,08,14,07,27,19.50
2010,08,14,07,28,19.50
2010,08,14,07,29,19.60
2010,08,14,07,30,19.60
2010,08,14,07,31,19.70
2010,08,14,07,32,19.70
2010,08,14,07,33,19.80
2010,08,14,07,34,19.90
2010,08,14,07,35,19.90
2010,08,14,07,36,19.90
2010,08,14,07,37,19.90
2010,08,14,07,38,19.90
2010,08,14,07,39,19.90
2010,08,14,07,40,19.90
2010,08,14,07,41,20.00
2010,08,14,07,42,20.10
2010,08,14,07,43,20.20
2010,08,14,07,44,20.20
2010,08,14,07,45,20.30
2010,08,14,07,46,20.50
2010,08,14,07,47,20.50
2010,08,14,07,48,20.70
2010,08,14,07,49,20.80
2010,08,14,07,50,20.80
2010,08,14,07,51,20.80
2010,08,14,07,52,20.80
2010,08,14,07,53,20.80
2010,08,14,07,54,20.90
2010,08,14,07,55,20.90
2010,08,14,07,56,20.90
2010,08,14,07,57,20.90
2010,08,14,07,58,20.90
2010,08,14,07,59,20.90
2010,08,14,08,00,21.00
2010,08,14,08,01,21.00
2010,08,14,08,02,21.00
2010,08,14,08,03,21.00
2010,08,14,08,04,21.00
2010,08,14,08,05,21.00
2010,08,14,08,06,21.00
2010,08,14,08,07,21.00
2010,08,14,08,08,21.00
2010,08,14,08,09,21.00
2010,08,14,08,10,21.10
2010,08,14,08,11,21.10
2010,08,14,08,12,21.20
2010,08,14,08,13,21.30
2010,08,14,08,14,21.30
2010,08,14,08,15,21.40
2010,08,14,08,16,21.60
2010,08,14,08,17,21.60
2010,08,14,08,18,21.60
2010,08,14,08,19,21.60
2010,08,14,08,20,21.60
2010,08,14,08,21,21.40
2010,08,14,08,22,21.50
2010,08,14,08,23,21.60
2010,08,14,08,24,21.60
2010,08,14,08,25,21.60
2010,08,14,08,26,21.70
2010,08,14,08,27,21.70
2010,08,14,08,28,21.80
2010,08,14,08,29,21.80
2010,08,14,08,30,21.90
2010,08,14,08,31,21.90
2010,08,14,08,32,22.00
2010,08,14,08,33,22.10
2010,08,14,08,34,22.20
2010,08,14,08,35,22.30
2010,08,14,08,36,22.40
2010,08,14,08,37,22.50
2010,08,14,08,38,22.50
2010,08,14,08,39,22.50
2010,08,14,08,40,22.50
2010,08,14,08,41,22.50
2010,08,14,08,42,22.60
2010,08,14,08,43,22.60
2010,08,14,08,44,22.70
2010,08,14,08,45,22.70
2010,08,14,08,46,22.70
2010,08,14,08,47,22.80
2010,08,14,08,48,22.80
2010,08,14,08,49,22.70
2010,08,14,08,50,22.70
2010,08,14,08,51,22.70
2010,08,14,08,52,22.70
2010,08,14,08,53,22.70
2010,08,14,08,54,22.80
2010,08,14,08,55,22.90
2010,08,14,08,56,22.90
2010,08,14,08,57,22.90
2010,08,14,08,58,22.90
2010,08,14,08,59,22.90
2010,08,14,09,00,23.00
2010,08,14,09,01,23.10
2010,08,14,09,02,23.20
2010,08,14,09,03,23.20
2010,08,14,09,04,23.20
2010,08,14,09,05,23.10
2010,08,14,09,06,23.10
2010,08,14,09,07,23.20
2010,08,14,09,08,23.20
2010,08,14,09,09,23.10
2010,08,14,09,10,23.10
2010,08,14,09,11,22.90
2010,08,14,09,12,22.70
2010,08,14,09,13,22.60
2010,08,14,09,14,22.50
2010,08,14,09,15,22.30
2010,08,14,09,16,22.20
2010,08,14,09,17,22.10
2010,08,14,09,18,22.10
2010,08,14,09,19,22.20
2010,08,14,09,20,22.30
2010,08,14,09,21,22.50
2010,08,14,09,22,22.50
2010,08,14,09,23,22.50
2010,08,14,09,24,22.50
2010,08,14,09,25,22.50
2010,08,14,09,26,22.50
2010,08,14,09,27,22.50
2010,08,14,09,28,22.50
2010,08,14,09,29,22.50
2010,08,14,09,30,22.50
2010,08,14,09,31,22.40
2010,08,14,09,32,22.30
2010,08,14,09,33,22.20
2010,08,14,09,34,22.10
2010,08,14,09,35,22.10
2010,08,14,09,36,22.10
2010,08,14,09,37,22.10
2010,08,14,09,38,22.10
2010,08,14,09,39,22.10
2010,08,14,09,40,22.20
2010,08,14,09,41,22.20
2010,08,14,09,42,22.30
2010,08,14,09,43,22.20
2010,08,14,09,44,22.20
2010,08,14,09,45,22.30
2010,08,14,09,46,22.30
2010,08,14,09,47,22.30
2010,08,14,09,48,22.30
2010,08,14,09,49,22.30
2010,08,14,09,50,22.30
2010,08,14,09,51,22.30
2010,08,14,09,52,22.20
2010,08,14,09,53,22.20
2010,08,14,09,54,22.20
2010,08,14,09,55,22.20
2010,08,14,09,56,22.20
2010,08,14,09,57,22.20
2010,08,14,09,58,22.20
2010,08,14,09,59,22.20
2010,08,14,10,00,22.30
2010,08,14,10,01,22.50
2010,08,14,10,02,22.50
2010,08,14,10,03,22.60
2010,08,14,10,04,22.60
2010,08,14,10,05,22.70
2010,08,14,10,06,22.70
2010,08,14,10,07,22.80
2010,08,14,10,08,22.80
2010,08,14,10,09,22.90
2010,08,14,10,10,23.10
2010,08,14,10,11,23.00
2010,08,14,10,12,22.90
2010,08,14,10,13,22.90
2010,08,14,10,14,23.10
2010,08,14,10,15,23.10
2010,08,14,10,16,23.20
2010,08,14,10,17,23.20
2010,08,14,10,18,23.30
2010,08,14,10,19,23.40
2010,08,14,10,20,23.50
2010,08,14,10,21,23.70
2010,08,14,10,22,23.70
2010,08,14,10,23,23.70
2010,08,14,10,24,23.70
2010,08,14,10,25,23.70
2010,08,14,10,26,23.80
2010,08,14,10,27,23.80
2010,08,14,10,28,23.90
2010,08,14,10,29,23.90
2010,08,14,10,30,24.00
2010,08,14,10,31,24.10
2010,08,14,10,32,24.00
2010,08,14,10,33,23.90
2010,08,14,10,34,23.90
2010,08,14,10,35,23.90
2010,08,14,10,36,23.90
2010,08,14,10,37,23.80
2010,08,14,10,38,23.70
2010,08,14,10,39,23.80
2010,08,14,10,40,23.90
2010,08,14,10,41,24.00
2010,08,14,10,42,24.10
2010,08,14,10,43,24.10
2010,08,14,10,44,24.10
2010,08,14,10,45,24.20
2010,08,14,10,46,24.30
2010,08,14,10,47,24.30
2010,08,14,10,48,24.20
2010,08,14,10,49,24.20
2010,08,14,10,50,24.20
2010,08,14,10,51,24.20
2010,08,14,10,52,24.20
2010,08,14,10,53,24.20
2010,08,14,10,54,24.10
2010,08,14,10,55,24.10
2010,08,14,10,56,24.10
2010,08,14,10,57,24.10
2010,08,14,10,58,24.10
2010,08,14,10,59,23.90
2010,08,14,11,00,23.90
2010,08,14,11,01,23.80
2010,08,14,11,02,23.70
2010,08,14,11,03,23.70
2010,08,14,11,04,23.60
2010,08,14,11,05,23.50
2010,08,14,11,06,23.30
2010,08,14,11,07,23.30
2010,08,14,11,08,23.30
2010,08,14,11,09,23.30
2010,08,14,11,10,23.30
2010,08,14,11,11,23.30
2010,08,14,11,12,23.30
2010,08,14,11,13,23.40
2010,08,14,11,14,23.40
2010,08,14,11,15,23.40
2010,08,14,11,16,23.40
2010,08,14,11,17,23.40
2010,08,14,11,18,23.50
2010,08,14,11,19,23.40
2010,08,14,11,20,23.40
2010,08,14,11,21,23.60
2010,08,14,11,22,23.60
2010,08,14,11,23,23.70
2010,08,14,11,24,23.70
2010,08,14,11,25,23.70
2010,08,14,11,26,23.90
2010,08,14,11,27,23.90
2010,08,14,11,28,23.90
2010,08,14,11,29,23.90
2010,08,14,11,30,23.90
2010,08,14,11,31,23.90
2010,08,14,11,32,23.80
2010,08,14,11,33,23.70
2010,08,14,11,34,23.70
2010,08,14,11,35,23.60
2010,08,14,11,36,23.40
2010,08,14,11,37,23.20
2010,08,14,11,38,23.00
2010,08,14,11,39,22.90
2010,08,14,11,40,22.90
2010,08,14,11,41,22.90
2010,08,14,11,42,22.90
2010,08,14,11,43,23.00
2010,08,14,11,44,23.20
2010,08,14,11,45,23.30
2010,08,14,11,46,23.30
2010,08,14,11,47,23.30
2010,08,14,11,48,23.40
2010,08,14,11,49,23.50
2010,08,14,11,50,23.60
2010,08,14,11,51,23.70
2010,08,14,11,52,23.80
2010,08,14,11,53,23.90
2010,08,14,11,54,24.10
2010,08,14,11,55,24.20
2010,08,14,11,56,24.40
2010,08,14,11,57,24.50
2010,08,14,11,58,24.70
2010,08,14,11,59,24.60
2010,08,14,12,00,24.60
2010,08,14,12,01,24.60
2010,08,14,12,02,24.70
2010,08,14,12,03,24.70
2010,08,14,12,04,24.80
2010,08,14,12,05,24.90
2010,08,14,12,06,25.10
2010,08,14,12,07,25.30
2010,08,14,12,08,25.40
2010,08,14,12,09,25.50
2010,08,14,12,10,25.50
2010,08,14,12,11,25.50
2010,08,14,12,12,25.60
2010,08,14,12,13,25.60
2010,08,14,12,14,25.60
2010,08,14,12,15,25.70
2010,08,14,12,16,25.70
2010,08,14,12,17,25.70
2010,08,14,12,18,25.70
2010,08,14,12,19,25.80
2010,08,14,12,20,25.80
2010,08,14,12,21,25.90
2010,08,14,12,22,26.00
2010,08,14,12,23,26.00
2010,08,14,12,24,25.90
2010,08,14,12,25,25.90
2010,08,14,12,26,25.80
2010,08,14,12,27,25.80
2010,08,14,12,28,25.80
2010,08,14,12,29,25.80
2010,08,14,12,30,25.70
2010,08,14,12,31,25.50
2010,08,14,12,32,25.40
2010,08,14,12,33,25.30
2010,08,14,12,34,25.20
2010,08,14,12,35,25.20
2010,08,14,12,36,25.30
2010,08,14,12,37,25.20
2010,08,14,12,38,25.00
2010,08,14,12,39,24.90
2010,08,14,12,40,24.90
2010,08,14,12,41,24.90
2010,08,14,12,42,24.90
2010,08,14,12,43,24.90
2010,08,14,12,44,25.10
2010,08,14,12,45,25.20
2010,08,14,12,46,25.20
2010,08,14,12,47,25.20
2010,08,14,12,48,25.30
2010,08,14,12,49,25.40
2010,08,14,12,50,25.40
2010,08,14,12,51,25.30
2010,08,14,12,52,25.20
2010,08,14,12,53,25.20
2010,08,14,12,54,25.20
2010,08,14,12,55,25.20
2010,08,14,12,56,25.30
2010,08,14,12,57,25.40
2010,08,14,12,58,25.40
2010,08,14,12,59,25.50
2010,08,14,13,00,25.60
2010,08,14,13,01,25.80
2010,08,14,13,02,25.90
2010,08,14,13,03,26.00
2010,08,14,13,04,26.00
2010,08,14,13,05,26.20
2010,08,14,13,06,26.30
2010,08,14,13,07,26.50
2010,08,14,13,08,26.70
2010,08,14,13,09,26.90
2010,08,14,13,10,27.00
2010,08,14,13,11,27.10
2010,08,14,13,12,27.00
2010,08,14,13,13,26.90
2010,08,14,13,14,26.80
2010,08,14,13,15,26.60
2010,08,14,13,16,26.50
2010,08,14,13,17,26.40
2010,08,14,13,18,26.40
2010,08,14,13,19,26.40
2010,08,14,13,20,26.40
2010,08,14,13,21,26.50
2010,08,14,13,22,26.50
2010,08,14,13,23,26.40
2010,08,14,13,24,26.50
2010,08,14,13,25,26.60
2010,08,14,13,26,26.70
2010,08,14,13,27,26.70
2010,08,14,13,28,26.80
2010,08,14,13,29,26.90
2010,08,14,13,30,26.90
2010,08,14,13,31,26.80
2010,08,14,13,32,26.80
2010,08,14,13,33,26.70
2010,08,14,13,34,26.70
2010,08,14,13,35,26.70
2010,08,14,13,36,26.80
2010,08,14,13,37,26.80
2010,08,14,13,38,26.80
2010,08,14,13,39,26.60
2010,08,14,13,40,26.60
2010,08,14,13,41,26.60
2010,08,14,13,42,26.50
2010,08,14,13,43,26.40
2010,08,14,13,44,26.50
2010,08,14,13,45,26.60
2010,08,14,13,46,26.60
2010,08,14,13,47,26.70
2010,08,14,13,48,26.80
2010,08,14,13,49,26.90
2010,08,14,13,50,27.00
2010,08,14,13,51,27.20
2010,08,14,13,52,27.20
2010,08,14,13,53,27.20
2010,08,14,13,54,27.20
2010,08,14,13,55,27.20
2010,08,14,13,56,27.20
2010,08,14,13,57,27.20
2010,08,14,13,58,27.30
2010,08,14,13,59,27.30
2010,08,14,14,00,27.40
2010,08,14,14,01,27.50
2010,08,14,14,02,27.60
2010,08,14,14,03,27.60
2010,08,14,14,04,27.60
2010,08,14,14,05,27.60
2010,08,14,14,06,27.60
2010,08,14,14,07,27.60
2010,08,14,14,08,27.60
2010,08,14,14,09,27.60
2010,08,14,14,10,27.60
2010,08,14,14,11,27.60
2010,08,14,14,12,27.70
2010,08,14,14,13,27.70
2010,08,14,14,14,27.70
2010,08,14,14,15,27.70
2010,08,14,14,16,27.90
2010,08,14,14,17,27.80
2010,08,14,14,18,27.80
2010,08,14,14,19,27.90
2010,08,14,14,20,28.00
2010,08,14,14,21,28.00
2010,08,14,14,22,28.00
2010,08,14,14,23,28.00
2010,08,14,14,24,28.00
2010,08,14,14,25,28.00
2010,08,14,14,26,28.10
2010,08,14,14,27,28.00
2010,08,14,14,28,28.00
2010,08,14,14,29,28.00
2010,08,14,14,30,28.00
2010,08,14,14,31,28.20
2010,08,14,14,32,28.20
2010,08,14,14,33,28.20
2010,08,14,14,34,28.20
2010,08,14,14,35,28.20
2010,08,14,14,36,28.30
2010,08,14,14,37,28.30
2010,08,14,14,38,28.20
2010,08,14,14,39,28.20
2010,08,14,14,40,28.20
2010,08,14,14,41,28.10
2010,08,14,14,42,28.00
2010,08,14,14,43,28.00
2010,08,14,14,44,27.90
2010,08,14,14,45,27.90
2010,08,14,14,46,27.90
2010,08,14,14,47,28.00
2010,08,14,14,48,28.00
2010,08,14,14,49,28.00
2010,08,14,14,50,27.90
2010,08,14,14,51,27.70
2010,08,14,14,52,27.70
2010,08,14,14,53,27.70
2010,08,14,14,54,27.70
2010,08,14,14,55,27.70
2010,08,14,14,56,27.70
2010,08,14,14,57,27.70
2010,08,14,14,58,27.70
2010,08,14,14,59,27.70
2010,08,14,15,00,27.70
2010,08,14,15,01,27.70
2010,08,14,15,02,27.80
2010,08,14,15,03,27.80
2010,08,14,15,04,27.70
2010,08,14,15,05,27.70
2010,08,14,15,06,27.60
2010,08,14,15,07,27.50
2010,08,14,15,08,27.40
2010,08,14,15,09,27.40
2010,08,14,15,10,27.40
2010,08,14,15,11,27.30
2010,08,14,15,12,27.30
2010,08,14,15,13,27.30
2010,08,14,15,14,27.40
2010,08,14,15,15,27.50
2010,08,14,15,16,27.60
2010,08,14,15,17,27.60
2010,08,14,15,18,27.70
2010,08,14,15,19,27.80
2010,08,14,15,20,27.80
2010,08,14,15,21,27.80
2010,08,14,15,22,27.90
2010,08,14,15,23,27.90
2010,08,14,15,24,28.00
2010,08,14,15,25,27.90
2010,08,14,15,26,27.90
2010,08,14,15,27,27.90
2010,08,14,15,28,27.90
2010,08,14,15,29,27.90
2010,08,14,15,30,27.90
2010,08,14,15,31,27.90
2010,08,14,15,32,27.90
2010,08,14,15,33,28.00
2010,08,14,15,34,28.00
2010,08,14,15,35,28.10
2010,08,14,15,36,28.20
2010,08,14,15,37,28.30
2010,08,14,15,38,28.40
2010,08,14,15,39,28.50
2010,08,14,15,40,28.60
2010,08,14,15,41,28.60
2010,08,14,15,42,28.60
2010,08,14,15,43,28.50
2010,08,14,15,44,28.40
2010,08,14,15,45,28.40
2010,08,14,15,46,28.40
2010,08,14,15,47,28.40
2010,08,14,15,48,28.30
2010,08,14,15,49,28.30
2010,08,14,15,50,28.40
2010,08,14,15,51,28.40
2010,08,14,15,52,28.50
2010,08,14,15,53,28.50
2010,08,14,15,54,28.40
2010,08,14,15,55,28.40
2010,08,14,15,56,28.40
2010,08,14,15,57,28.40
2010,08,14,15,58,28.50
2010,08,14,15,59,28.50
2010,08,14,16,00,28.40
2010,08,14,16,01,28.30
2010,08,14,16,02,28.30
2010,08,14,16,03,28.30
2010,08,14,16,04,28.30
2010,08,14,16,05,28.30
2010,08,14,16,06,28.30
2010,08,14,16,07,28.30
2010,08,14,16,08,28.40
2010,08,14,16,09,28.40
2010,08,14,16,10,28.50
2010,08,14,16,11,28.60
2010,08,14,16,12,28.70
2010,08,14,16,13,28.70
2010,08,14,16,14,28.60
2010,08,14,16,15,28.60
2010,08,14,16,16,28.60
2010,08,14,16,17,28.60
2010,08,14,16,18,28.60
2010,08,14,16,19,28.60
2010,08,14,16,20,28.60
2010,08,14,16,21,28.60
2010,08,14,16,22,28.60
2010,08,14,16,23,28.70
2010,08,14,16,24,28.60
2010,08,14,16,25,28.70
2010,08,14,16,26,28.70
2010,08,14,16,27,28.70
2010,08,14,16,28,28.70
2010,08,14,16,29,28.70
2010,08,14,16,30,28.70
2010,08,14,16,31,28.60
2010,08,14,16,32,28.60
2010,08,14,16,33,28.60
2010,08,14,16,34,28.60
2010,08,14,16,35,28.60
2010,08,14,16,36,28.70
2010,08,14,16,37,28.70
2010,08,14,16,38,28.80
2010,08,14,16,39,28.80
2010,08,14,16,40,28.80
2010,08,14,16,41,28.80
2010,08,14,16,42,28.80
2010,08,14,16,43,28.80
2010,08,14,16,44,28.70
2010,08,14,16,45,28.80
2010,08,14,16,46,28.80
2010,08,14,16,47,28.70
2010,08,14,16,48,28.70
2010,08,14,16,49,28.80
2010,08,14,16,50,28.80
2010,08,14,16,51,28.90
2010,08,14,16,52,28.90
2010,08,14,16,53,28.90
2010,08,14,16,54,29.00
2010,08,14,16,55,29.10
2010,08,14,16,56,29.20
2010,08,14,16,57,29.20
2010,08,14,16,58,29.30
2010,08,14,16,59,29.40
2010,08,14,17,00,29.40
2010,08,14,17,01,29.40
2010,08,14,17,02,29.40
2010,08,14,17,03,29.50
2010,08,14,17,04,29.50
2010,08,14,17,05,29.60
2010,08,14,17,06,29.60
2010,08,14,17,07,29.60
2010,08,14,17,08,29.60
2010,08,14,17,09,29.70
2010,08,14,17,10,29.70
2010,08,14,17,11,29.70
2010,08,14,17,12,29.70
2010,08,14,17,13,29.70
2010,08,14,17,14,29.60
2010,08,14,17,15,29.60
2010,08,14,17,16,29.50
2010,08,14,17,17,29.30
2010,08,14,17,18,29.20
2010,08,14,17,19,29.00